Regional Weather Roundup
Issued by NWS Upton, NY

Current Version | Previous Version | Text Only | Print | Product List | Glossary On
Versions: 1 2 3 4 5 6 7 8 9 10 11 12 13 14 15 16 17 18 19 20 21 22 23 24 25 26 27 28 29 30 31 32 33 34 35 36 37 38 39 40 41 42 43 44 45 46 47 48 49 50
000 ASUS41 KOKX 221405 RWROKX REGIONAL WEATHER ROUNDUP NATIONAL WEATHER SERVICE NEW YORK NY 900 AM EST SAT NOV 22 2014 NOTE: "FAIR" INDICATES FEW OR NO CLOUDS BELOW 12,000 FEET WITH NO SIGNIFICANT WEATHER AND/OR OBSTRUCTIONS TO VISIBILITY. NYZ071-072-176-178-NJZ106-104-221500- NEW YORK CITY METRO AREA CITY SKY/WX TMP DP RH WIND PRES REMARKS CENTRAL PARK SUNNY 31 10 41 MISG 30.49F LAGUARDIA APRT MOSUNNY 31 10 41 SW12 30.48F WCI 22 KENNEDY INTL MOSUNNY 32 11 41 W15 30.50F WCI 22 NEWARK/LIBERTY MOSUNNY 30 12 47 SW8 30.49F WCI 22 BRNX BOT. GARD N/A N/A N/A N/A SW12 30.47F TETERBORO SUNNY 29 12 49 SW6 30.48F WCI 23 $$ NYZ177-179-078>081-221500- LONG ISLAND NEW YORK CITY SKY/WX TMP DP RH WIND PRES REMARKS FARMINGDALE SUNNY 34 14 43 W12 30.48F WCI 25 ISLIP MOSUNNY 34 16 47 W14 30.46F WCI 25 SHIRLEY LGT RAIN 34 16 47 W12 30.48F WCI 25 WESTHAMPTON SUNNY 34 19 54 W13 30.48F WCI 25 MONTAUK POINT N/A 37 17 44 SW10G20 30.47F WCI 30 $$ NYZ052-065-067-221500- HUDSON VALLEY CITY SKY/WX TMP DP RH WIND PRES REMARKS WHITE PLAINS SUNNY 29 11 47 VRB7 30.43F WCI 22 NEWBURGH MOSUNNY 25 14 63 W9 30.42F WCI 15 MONTGOMERY MOSUNNY 25 14 63 SW7 30.41F WCI 17 POUGHKEEPSIE SUNNY 29 12 49 SW8 30.43F WCI 21 ALBANY CLOUDY 23 12 62 S13 30.37F WCI 11 $$ NJZ001-105-106-008-010-013-015-019>022-104-221500- NEW JERSEY CITY SKY/WX TMP DP RH WIND PRES REMARKS NEWARK/LIBERTY MOSUNNY 30 12 47 SW8 30.49F WCI 22 TETERBORO SUNNY 29 12 49 SW6 30.48F WCI 23 CALDWELL SUNNY 27 11 51 VRB3 30.48F MORRISTOWN MOSUNNY 27 18 69 SW6 30.49F WCI 20 SOMERVILLE SUNNY 26 17 68 MISG 30.47F SUSSEX MIX PCPN 24 15 68 SW9 30.42F WCI 14 ANDOVER N/A 25 14 63 SW7 30.44F WCI 17 TRENTON SUNNY 28 14 55 SW5 30.49F WCI 23 MILLVILLE SUNNY 33 20 58 CALM 30.53S ATLANTIC CITY SUNNY 32 16 51 VRB3 30.52F WRIGHTSTOWN SUNNY 30 15 53 SW7 30.48F WCI 23 TOMS RIVER SUNNY 28 16 59 CALM 30.51F BELMAR SUNNY 28 10 47 SW7 30.49F WCI 21 $$ PAZ047>061-062-071-221500- EASTERN PENNSYLVANIA CITY SKY/WX TMP DP RH WIND PRES REMARKS PHILADELPHIA MOSUNNY 31 18 58 SW8 30.53S WCI 23 ALLENTOWN SUNNY 26 13 57 SW8 30.47F WCI 18 SCRANTON SUNNY 24 12 60 W6 30.38F WCI 17 $$ CTZ002-004>006-009-010-012-RIZ004-006-007-MAZ004-011-015-221500- SOUTHERN NEW ENGLAND IN CT CITY SKY/WX TMP DP RH WIND PRES REMARKS BRADLEY INTL PTSUNNY 31 14 49 S9 30.40F WCI 23 HARTFORD SUNNY 31 13 47 S8G16 30.43F WCI 23 DANBURY SUNNY 28 12 51 W10 30.44S WCI 19 WTRBRY/OXFORD MOSUNNY 28 10 47 VRB5 30.40F WCI 23 BRIDGEPORT SUNNY 34 15 46 W14 30.46F WCI 25 MERIDEN SUNNY 30 15 53 S7 30.44F WCI 23 NEW HAVEN MOSUNNY 36 15 42 W12 30.45F WCI 28 CHESTER FAIR 32 12 43 W5 30.42F WCI 27 GROTON SUNNY 33 16 49 W8 30.45F WCI 26 WILLIMANTIC SUNNY 28 16 60 CALM 30.43F IN RI CITY SKY/WX TMP DP RH WIND PRES REMARKS PROVIDENCE PTSUNNY 30 12 47 SW8 30.44F WCI 22 BLOCK ISLAND SUNNY 37 14 38 W20G25 30.44F WCI 27 WESTERLY SUNNY 33 13 43 W5 30.45F WCI 29 IN MA CITY SKY/WX TMP DP RH WIND PRES REMARKS BOSTON MOSUNNY 31 12 45 SW12 30.40F WCI 22 WORCESTER SUNNY 26 10 50 W18G30 30.31F WCI 13 WESTFIELD SUNNY 27 13 55 S8 30.38F WCI 19 PROVINCETOWN SUNNY 34 16 47 W16 30.42S WCI 23 NANTUCKET SUNNY 38 20 48 W12 30.45S WCI 30 $$ ANZ330-335-338-340-345-350-353-355-221500- COASTAL MARINE OBSERVATIONS STATION/POSITION TIME SKY/WX TEMP WIND PRES VSBY WAVE AIR SEA DIR/SP/G HT/PER (UTC) (F) (DEG/KT/KT) (MB) (MI) (FT/S) NY HARB ENTRANCE 1400 34 54 260/ 16/ 21 1032.9 2/ 3 4S FIRE IS 1400 52 N/A 3/ 4 20S FIRE ISLAND 1400 38 54 260/ 16/ 19 1032.3 3/ 4 23SW MTP 1400 N/A 3/ 4 HUDSON CANYON 1400 41 58 260/ 14/ 17 1032.7 3/ 4 EXECUTION ROCKS 1400 33 47 250/ 12/ 16 N/A WESTERN LI SOUND 1400 34 230/ 16/ 19 N/A 1/ 3 CENTRAL LI SOUND 1300 36 51 230/ 17/ 23 N/A 2/ 4 EASTERN LI SOUND 1300 41 53 280/ 10/ 16 N/A ROBBINS REEF 1400 29 230/ 9/ 11 1031.3 $$ >>>>>>>>>>>>>>>>>>>>>>>>>>>> KEY <<<<<<<<<<<<<<<<<<<<<<<<<<< > < > SKY/WX - SKY CONDITION/PRESENT WEATHER < > TMP - TEMPERATURE IN FAHRENHEIT < > DP - DEWPOINT IN FAHRENHEIT < > RH - RELATIVE HUMIDITY IN PERCENT < > WIND - DIRECTION AND SPEED IN MPH < > PRES - MEAN SEA LEVEL PRESSURE IN INCHES OF HG < > WCI - WIND CHILL INDEX < > VSB - VISIBILITY IN MILES < > HX - HEAT INDEX < > TC - TEMPERATURE IN CELSIUS < > VRB - VARIABLE WIND DIRECTION < > < >>>>>>>>>>>>>>>>>>>>>>>>>>>> KEY <<<<<<<<<<<<<<<<<<<<<<<<<<<

USA.gov is the U.S. government's official web portal to all federal, state and local government web resources and services.